Weather History for Winston-Salem, NC

Change the Weather History Date:

Friday, February 22, 2013

  Actual Average Record
Temperature  
Mean Temperature 38 °F -  
Max Temperature 42 °F 51 °F 70 °F (1986)
Min Temperature 33 °F 33 °F 3 °F (1968)
Degree Days  
Heating Degree Days 28    
Moisture  
Dew Point 32 °F    
Average Humidity 91    
Maximum Humidity 100    
Minimum Humidity 53    
Precipitation  
Precipitation 0.32 in - - ()
Sea Level Pressure  
Sea Level Pressure 30.24 in    
Wind  
Wind Speed 5 mph (ENE)    
Max Wind Speed 8 mph    
Max Gust Speed -    
Visibility 5 miles    
Events Rain , Snow    
Averages and records for this station are not official NWS values.
T = Trace of Precipitation, MM = Missing Value Source: NWS Daily Summary

Daily Weather History Graph

Daily Weather History Graph

Search for Another Location

Airport:

Trip Planner

Search our weather history database for the weather conditions in past years. The results will help you decide how hot, cold, wet, or windy it might be!

Date:

Astronomy

Feb. 22, 2013 Rise Set
Actual Time 6:59 AM EST 6:09 PM EST
Civil Twilight 6:33 AM EST 6:35 PM EST
Nautical Twilight 6:04 AM EST 7:05 PM EST
Astronomical Twilight 5:34 AM EST 7:34 PM EST
Moon 3:22 PM EST (2/22) 4:40 AM EST (2/22)
Length of Visible Light 12h 01m
Length of Day
11h 09m
Waxing Gibbous, 90% of the Moon is Illuminated
Feb 22
Waxing Gibbous
Feb 25
Full
Mar 4
Last Quarter
Mar 11
New
Mar 19
First Quarter

Hourly Weather History & Observations

Time (EST) Temp. Windchill Dew Point Humidity Pressure Visibility Wind Dir Wind Speed Gust Speed Precip Events Conditions
12:54 AM 42.1 °F 37.1 °F 26.1 °F 53% 30.33 in 7.0 mi South 8.1 mph - 0.01 in Rain Light Rain
1:54 AM 35.1 °F 32.2 °F 33.1 °F 92% 30.31 in 6.0 mi NE 3.5 mph - 0.10 in Snow Light Snow
2:23 AM 33.8 °F 29.6 °F 32.0 °F 93% 30.30 in 4.0 mi NNE 4.6 mph - 0.05 in Snow Light Snow
2:52 AM 33.8 °F 29.6 °F 32.0 °F 93% 30.30 in 5.0 mi ENE 4.6 mph - 0.10 in Rain Light Rain
2:54 AM 34.0 °F 29.8 °F 32.0 °F 92% 30.30 in 6.0 mi NE 4.6 mph - 0.10 in Rain Light Rain
3:29 AM 33.8 °F 27.0 °F 32.0 °F 93% 30.26 in 5.0 mi ENE 8.1 mph - 0.05 in Rain Light Rain
3:54 AM 33.1 °F 26.9 °F 32.0 °F 96% 30.25 in 5.0 mi East 6.9 mph - 0.07 in Rain Light Rain
4:10 AM 33.8 °F 28.6 °F 30.2 °F 87% 30.23 in 10.0 mi East 5.8 mph - 0.01 in Rain Light Rain
4:54 AM 33.1 °F 28.7 °F 32.0 °F 96% 30.27 in 10.0 mi ENE 4.6 mph - 0.01 in   Overcast
5:23 AM 33.8 °F 29.6 °F 30.2 °F 87% 30.26 in 10.0 mi NNE 4.6 mph - 0.00 in   Overcast
5:54 AM 33.1 °F 30.0 °F 30.9 °F 92% 30.27 in 10.0 mi ENE 3.5 mph - 0.00 in   Overcast
6:09 AM 33.8 °F 30.8 °F 30.2 °F 87% 30.26 in 10.0 mi East 3.5 mph - N/A   Overcast
6:27 AM 33.8 °F 29.6 °F 30.2 °F 87% 30.26 in 10.0 mi NE 4.6 mph - N/A   Overcast
6:54 AM 33.1 °F - 30.9 °F 92% 30.30 in 10.0 mi Calm Calm - N/A   Overcast
7:11 AM 33.8 °F - 30.2 °F 87% 30.29 in 10.0 mi Calm Calm - N/A   Overcast
7:54 AM 33.1 °F 30.0 °F 30.9 °F 92% 30.31 in 4.0 mi East 3.5 mph - 0.01 in Rain Light Rain
8:01 AM 33.8 °F 30.8 °F 30.2 °F 87% 30.30 in 4.0 mi ENE 3.5 mph - 0.00 in Rain Light Rain
8:12 AM 33.8 °F 29.6 °F 30.2 °F 87% 30.30 in 6.0 mi ENE 4.6 mph - 0.00 in Rain Light Rain
8:25 AM 33.8 °F 30.8 °F 30.2 °F 87% 30.31 in 7.0 mi NE 3.5 mph - 0.00 in   Overcast
8:54 AM 33.1 °F 30.0 °F 30.0 °F 89% 30.30 in 9.0 mi ENE 3.5 mph - 0.00 in   Overcast
9:40 AM 33.8 °F 27.7 °F 30.2 °F 87% 30.27 in 7.0 mi ENE 6.9 mph - N/A   Overcast
9:54 AM 33.1 °F 27.7 °F 30.0 °F 89% 30.28 in 9.0 mi East 5.8 mph - N/A   Overcast
10:54 AM 34.0 °F 29.8 °F 30.0 °F 85% 30.29 in 10.0 mi NNE 4.6 mph - N/A   Overcast
11:54 AM 35.1 °F 31.0 °F 30.9 °F 85% 30.28 in 10.0 mi ESE 4.6 mph - N/A   Overcast
12:54 PM 35.1 °F - 32.0 °F 89% 30.25 in 9.0 mi Calm Calm - N/A   Overcast
1:54 PM 35.1 °F 29.3 °F 32.0 °F 89% 30.24 in 9.0 mi North 6.9 mph - N/A   Overcast
2:54 PM 35.1 °F 31.0 °F 32.0 °F 89% 30.22 in 3.0 mi NE 4.6 mph - 0.00 in   Overcast
3:07 PM 35.6 °F 31.7 °F 32.0 °F 87% 30.21 in 2.5 mi NE 4.6 mph - 0.00 in Rain Light Rain
3:54 PM 35.1 °F 31.0 °F 33.1 °F 92% 30.22 in 3.0 mi ENE 4.6 mph - 0.01 in   Overcast
4:13 PM 35.6 °F 31.7 °F 33.8 °F 93% 30.19 in 2.5 mi East 4.6 mph - 0.00 in   Overcast
4:30 PM 35.6 °F 32.8 °F 33.8 °F 93% 30.20 in 4.0 mi East 3.5 mph - 0.00 in   Overcast
4:46 PM 35.6 °F - 33.8 °F 93% 30.20 in 2.0 mi Calm Calm - 0.00 in   Overcast
4:54 PM 35.1 °F - 33.1 °F 92% 30.23 in 2.0 mi Calm Calm - 0.00 in   Overcast
5:45 PM 35.6 °F 31.7 °F 33.8 °F 93% 30.19 in 1.8 mi East 4.6 mph - 0.00 in   Overcast
5:52 PM 35.6 °F 31.7 °F 33.8 °F 93% 30.17 in 2.0 mi East 4.6 mph - 0.00 in   Overcast
5:54 PM 35.1 °F 30.1 °F 33.1 °F 92% 30.20 in 2.0 mi East 5.8 mph - 0.00 in   Overcast
6:07 PM 35.6 °F 32.8 °F 33.8 °F 93% 30.19 in 4.0 mi NE 3.5 mph - N/A   Overcast
6:54 PM 35.1 °F 30.1 °F 33.1 °F 92% 30.21 in 2.5 mi ENE 5.8 mph - 0.00 in Rain Light Rain
7:54 PM 34.0 °F 31.0 °F 33.1 °F 96% 30.20 in 2.5 mi NNE 3.5 mph - 0.00 in   Overcast
8:14 PM 33.8 °F - 33.8 °F 100% 30.18 in 2.0 mi Calm Calm - 0.01 in   Overcast
8:54 PM 35.1 °F 32.2 °F 33.1 °F 92% 30.20 in 3.0 mi East 3.5 mph - 0.01 in   Overcast
9:19 PM 35.6 °F 30.7 °F 33.8 °F 93% 30.19 in 2.5 mi NE 5.8 mph - N/A   Overcast
9:30 PM 35.6 °F 31.7 °F 33.8 °F 93% 30.18 in 2.5 mi East 4.6 mph - N/A   Overcast
9:51 PM 33.8 °F 30.8 °F 33.8 °F 100% 30.18 in 3.0 mi ESE 3.5 mph - N/A   Overcast
9:52 PM 34.0 °F 31.0 °F 33.1 °F 96% 30.20 in 3.0 mi ESE 3.5 mph - N/A   Overcast
10:54 PM 34.0 °F 31.0 °F 33.1 °F 96% 30.19 in 4.0 mi ENE 3.5 mph - N/A   Overcast
11:04 PM 33.8 °F 30.8 °F 33.8 °F 100% 30.16 in 5.0 mi East 3.5 mph - N/A   Overcast
11:42 PM 33.8 °F 29.6 °F 33.8 °F 100% 30.12 in 3.0 mi ENE 4.6 mph - N/A   Overcast
11:54 PM 34.0 °F 31.0 °F 33.1 °F 96% 30.14 in 3.0 mi NE 3.5 mph - N/A   Overcast